Location: Kailua
(21.4020°N, 157.7390°W)
Time: 21:36:08
(UTC-10:00)

Daily predictions for brighter satellites

Satellite Brightness Start Highest point End
(mag) Time Altitude Azimuth Time Altitude Azimuth Time Altitude Azimuth
FALCON 9 R/B 4.4 18:34:25 10° WNW 18:40:22 38° NNE 19:00:06 10° ENE
CENTAUR R/B 2.3 18:41:17 10° SSW 18:46:53 82° ESE 18:53:07 10° NNE
Cosmos 158 Rocket 3.9 18:45:02 10° S 18:49:54 59° ESE 18:54:41 10° NNE
Cosmos 1733 Rocket 3.1 18:47:20 10° S 18:51:38 85° W 18:55:58 10° N
CZ-4 R/B 2.7 18:48:47 10° S 18:52:46 47° W 18:56:41 10° NNW
Meteor 1-27 Rocket 4.0 18:48:10 10° N 18:54:05 82° W 19:00:00 10° S
GPS 2-05 Rocket1 2.9 18:53:28 10° SW 18:56:33 51° SSE 18:59:36 10° ENE
NOAA 12 4.2 18:53:02 10° SSE 18:58:12 59° ENE 19:03:25 10° N
Lacrosse 4 Rocket 4.0 18:55:13 10° NW 18:58:50 27° WSW 19:02:30 10° SSW
Lacrosse 5 2.9 18:55:17 10° N 18:59:26 25° NE 19:03:32 10° ESE
Iridium 4 Rocket 4.4 18:56:50 10° NE 19:00:07 19° E 19:03:15 10° SE
MOS 1 4.3 18:55:16 10° SSE 19:00:50 66° ENE 19:06:27 10° N
H-2A R/B 3.5 18:58:37 10° SE 19:02:04 30° ENE 19:05:31 10° NNE
Okean 3 4.5 18:58:44 10° NNE 19:02:06 24° E 19:05:29 10° SE
ARIANE 5 R/B 4.4 18:28:39 10° WSW 19:02:41 34° SSW 19:08:24 10° SE
Shenzhou-11 Module 4.1 19:05:51 10° N 19:07:17 13° NNE 19:08:24 11° NE
Cosmos 2219 Rocket 2.7 19:03:44 10° NNW 19:09:19 66° WSW 19:14:52 10° S
Cosmos 1624 Rocket 3.9 19:05:52 10° NNW 19:11:04 84° ENE 19:16:15 10° SSE
Cosmos 2227 Rocket 4.5 19:07:27 10° WSW 19:12:01 25° WNW 19:16:36 10° NNW
GPS 2-14 Rocket1 2.8 19:08:18 10° W 19:12:30 82° S 19:15:53 15° E
FENGYUN 3A 4.0 19:10:17 10° S 19:15:37 72° WSW 19:21:01 10° NNW
Meteor 1-14 Rocket 4.4 19:12:31 10° S 19:18:11 83° W 19:24:01 10° N
NOSS 0 Rocket 4.0 19:14:33 10° NNW 19:20:46 84° WSW 19:26:59 10° SSE
ERS-2 2.7 19:17:27 10° SE 19:20:49 34° ENE 19:24:10 10° N
Cosmos 1633 2.8 19:19:50 10° S 19:23:21 69° W 19:26:53 10° N
Cosmos 2237 Rocket 2.1 19:18:15 10° NNW 19:23:51 74° ENE 19:29:27 10° SSE
SL-16 R/B 3.1 19:22:30 10° NNE 19:27:10 26° ENE 19:30:11 17° ESE
Meteor 1-20 Rocket 4.4 19:24:20 10° S 19:29:55 78° W 19:35:39 10° N
Cosmos 1812 2.6 19:27:00 10° N 19:30:52 79° E 19:34:43 10° S
Cosmos 1602 4.2 19:27:21 10° SSE 19:31:00 37° E 19:34:38 10° NNE
Envisat 3.9 19:28:32 13° ESE 19:31:57 25° ENE 19:36:02 10° NNE
SeaSat 1 4.0 19:35:07 18° NE 19:35:07 18° NE 19:37:35 10° NNE
FREGAT/IRIS 2.4 19:32:12 10° SSE 19:35:07 63° ENE 19:38:01 10° N
USA 32 3.9 19:30:35 10° S 19:35:47 72° E 19:40:59 10° N
Cosmos 1269 Rocket 4.0 19:33:05 10° SSW 19:38:22 88° WNW 19:43:39 10° NNE
Sich 1 Rocket 3.7 19:34:51 10° S 19:39:23 81° W 19:43:54 10° N
Thor Agena Rocket 3.4 19:34:36 10° NNE 19:39:40 83° ESE 19:44:41 10° SSW
Cosmos 1513 Rocket 4.5 19:35:07 10° N 19:41:18 58° E 19:47:21 10° SSE
Cosmos 1782 Rocket 3.4 19:37:19 10° S 19:41:47 77° E 19:46:12 10° N
Cosmos 1437 Rocket 2.7 19:39:26 10° S 19:43:24 87° E 19:47:27 10° N
ARGOS Delta rocket 3.6 19:38:54 10° NNE 19:43:35 72° E 19:48:02 10° S
Tsikada Rocket 4.0 19:39:40 10° S 19:45:58 65° E 19:52:18 10° NNE
Cosmos 1378 Rocket 3.4 19:42:13 10° N 19:46:37 68° E 19:51:01 10° SSE
Cosmos 494 Rocket 4.1 19:45:46 10° S 19:50:49 51° ESE 19:53:25 27° NE
Meteor 1-18 Rocket 4.0 19:47:50 10° N 19:53:24 78° E 19:58:55 10° S
CZ-3C R/B 1.8 19:51:19 10° WSW 19:54:37 76° SSE 19:59:00 31° E
Okean 2 Rocket 2.9 19:52:37 10° S 19:56:56 65° E 19:59:18 26° NNE
Cosmos 2263 Rocket 2.8 19:52:55 10° SSE 19:57:10 34° ESE 19:57:10 34° ESE
Meteor 1-11 Rocket 3.7 19:55:17 10° S 20:00:39 55° E 20:05:47 12° NNE
COSMOS 2455 2.8 19:54:49 10° S 20:00:43 62° ESE 20:03:26 32° NE
IUS-18 SRM-1 2.3 20:01:05 10° WNW 20:03:37 65° NNE 20:03:41 64° NNE
GPS 2-12 Rocket1 3.0 20:01:42 10° W 20:06:31 76° S 20:07:05 66° ESE
Alouette 2 Rocket 3.6 20:02:29 10° S 20:06:16 56° SSE 20:06:16 56° SSE
ATLAS 2A CENTAUR R/B 3.5 19:56:56 10° WNW 20:07:20 40° SW 20:10:11 22° SSE
SJ-6B 3.7 20:21:07 45° WSW 20:21:21 46° W 20:24:58 10° NNW
FUSE 4.4 20:28:09 10° W 20:32:58 54° SW 20:32:58 54° SW
Cosmos 44 4.1 20:35:22 10° NNW 20:39:23 52° NW 20:39:23 52° NW
Lacrosse 5 3.6 20:37:55 10° WNW 20:42:16 29° WSW 20:43:54 24° SSW
SL-16 R/B 4.1 21:06:27 10° NW 21:11:03 26° WSW 21:12:17 24° WSW
ATLAS 2A CENTAUR R/B 4.2 21:03:34 10° WSW 21:21:01 55° SW 21:21:01 55° SW
